Location: *
(46.3500°N, 10.9000°E)
Time: 07:27:52
(UTC+00:00)

Terra - Pass Details

Date: 09 April 2020
Orbit: 701 x 703 km, 98.2° (Epoch: 24 May)

Event Time Altitude Azimuth Distance (km) Brightness Sun altitude
Exits shadow 20:29:38 36° 57° (ENE) 1,106 2.7 -24.0°
Drops below altitude 10° 20:33:39 10° 2° (N) 2,183 4.9 -24.5°
Sets 20:36:03 0° 354° (N) 3,106 5.9 -24.8°
